This demonstration page uses our WeatherBlox Daily Observations layout. Learn more.

40.92945, -100.16068

Hourly Observations for April 13, 2017

Temp ( °F °C ) Dew Point ( °F °C ) Humidity (%) Winds ( mph kmh ) Pressure ( in mb ) Visibility ( mi km ) Precip ( " mm )
12:15 am 00:15 Clear 54 12.3 44 6.9 70 70 NE 8 13 30.09 1019 10 16.0934 0 0
12:35 am 00:35 Clear 54 12 45 7.3 73 73 NNE 10 17 30.09 1019 10 16.0934 0 0
12:55 am 00:55 Clear 53 11.4 45 7.3 76 76 N 8 13 30.09 1019 10 16.0934 0 0
1:15 am 01:15 Clear 52 11.2 46 7.6 79 79 N 9 15 30.09 1019 10 16.0934 0 0
1:35 am 01:35 Clear 51 10.7 46 7.5 81 81 N 3 6 30.12 1020 10 16.0934 0 0
1:55 am 01:55 Clear 50 9.9 45 7.4 85 85 ENE 5 7 30.15 1021 10 16.0934 0 0
2:15 am 02:15 Clear 50 10 45 7.4 84 84 NNE 8 13 30.12 1020 10 16.0934 0 0
2:35 am 02:35 Clear 49 9.5 45 7 85 85 N 9 15 30.12 1020 7 11.26538 0 0
2:55 am 02:55 Clear 48 9 44 6.6 85 85 Calm 30.15 1021 7 11.26538 0 0
3:15 am 03:15 Clear 48 8.7 44 6.6 87 87 NNE 6 9 30.15 1021 7 11.26538 0 0
3:35 am 03:35 Clear 47 8.5 44 6.4 87 87 NNE 5 7 30.15 1021 7 11.26538 0 0
3:55 am 03:55 Clear 45 7.4 42 5.7 89 89 N 8 13 30.18 1022 7 11.26538 0 0
4:15 am 04:15 Clear with Mist and Fog 46 8 44 6.6 91 91 NNE 8 13 30.15 1021 5 8.0467 0 0
4:35 am 04:35 Clear with Mist and Fog 46 7.9 43 6.3 90 90 N 5 7 30.18 1022 5 8.0467 0 0
4:55 am 04:55 Clear with Mist and Fog 46 7.7 44 6.4 92 92 NNE 9 15 30.12 1020 5 8.0467 0 0
5:15 am 05:15 Clear with Mist and Fog 46 7.8 44 6.5 92 92 N 10 17 30.12 1020 5 8.0467 0 0
5:35 am 05:35 Clear with Mist and Fog 46 7.5 43 6.2 92 92 NNE 8 13 30.15 1021 4 6.43736 0 0
5:55 am 05:55 Clear with Mist and Fog 46 7.5 43 6.1 91 91 NNE 8 13 30.15 1021 4 6.43736 0 0
6:15 am 06:15 Clear with Mist and Fog 45 7.3 43 6 92 92 Calm 30.18 1022 4 6.43736 0 0
6:35 am 06:35 Clear with Mist and Fog 44 6.4 41 5.1 92 92 NNE 5 7 30.18 1022 4 6.43736 0 0
6:55 am 06:55 Clear with Mist and Fog 42 5.3 39 4.1 92 92 W 5 7 30.18 1022 2.5 4.02335 0 0
7:15 am 07:15 Mostly Cloudy with Mist and Fog 41 5.1 39 4 93 93 N 3 6 30.24 1024 1.75 2.816345 0 0
7:35 am 07:35 Mostly Cloudy with Mist and Fog 41 5.1 39 4.1 93 93 NNE 6 9 30.24 1024 1.5 2.41401 0 0
7:55 am 07:55 Sunny with Mist and Fog 45 7 43 6 93 93 E 3 6 30.21 1023 2.5 4.02335 0 0
8:15 am 08:15 Mostly Cloudy with Mist and Fog 46 7.9 44 6.5 91 91 SE 6 9 30.21 1023 3 4.82802 0 0
8:35 am 08:35 Cloudy with Mist and Fog 47 8.5 44 6.9 90 90 E 5 7 30.18 1022 4 6.43736 0 0
8:55 am 08:55 Cloudy with Mist and Fog 49 9.6 46 7.5 87 87 E 8 13 30.18 1022 4 6.43736 0 0
9:15 am 09:15 Cloudy with Haze 51 10.3 46 7.9 85 85 ENE 12 19 30.18 1022 5 8.0467 0 0
9:35 am 09:35 Cloudy with Haze 52 11.1 47 8.1 82 82 E 9 15 30.18 1022 5 8.0467 0 0
9:55 am 09:55 Cloudy 54 12.2 47 8.6 79 79 ENE 9 15 30.15 1021 7 11.26538 0 0
10:15 am 10:15 Partly Cloudy 56 13.2 48 9 76 76 E 12 19 30.15 1021 7 11.26538 0 0
10:35 am 10:35 Sunny 58 14.2 49 9.5 74 74 E 8 13 30.12 1020 10 16.0934 0 0
10:55 am 10:55 Sunny 59 15.2 51 10.4 73 73 E 12 19 30.09 1019 10 16.0934 0 0
11:15 am 11:15 Sunny 61 16.3 51 10.8 70 70 E 12 19 30.09 1019 10 16.0934 0 0
11:35 am 11:35 Sunny 63 17.2 52 11.3 68 68 E 9 15 30.09 1019 10 16.0934 0 0
11:55 am 11:55 Sunny 65 18.2 53 11.7 66 66 E 8 13 30.06 1018 10 16.0934 0 0
12:15 pm 12:15 Sunny 65 18.6 53 11.6 64 64 ESE 10 17 30.03 1017 10 16.0934 0 0
12:35 pm 12:35 Sunny 67 19.5 54 12.1 62 62 SE 10 17 30.03 1017 10 16.0934 0 0
12:55 pm 12:55 Sunny 67 19.5 54 12.2 63 63 ESE 9 15 30.03 1017 10 16.0934 0 0
1:15 pm 13:15 Sunny 68 20 54 12.2 61 61 SE 13 20 30.03 1017 10 16.0934 0 0
1:35 pm 13:35 Sunny 69 20.4 54 12.1 59 59 ESE 8 13 30.03 1017 10 16.0934 0 0
1:55 pm 13:55 Sunny 70 21.3 55 12.5 57 57 ESE 9 15 29.97 1015 10 16.0934 0 0
2:15 pm 14:15 Sunny 71 21.6 54 12.2 55 55 SE 10 17 29.97 1015 10 16.0934 0 0
2:35 pm 14:35 Sunny 72 22.2 53 11.7 52 52 S 9 15 29.94 1014 10 16.0934 0 0
2:55 pm 14:55 Sunny 73 22.9 51 10.5 46 46 Calm 29.94 1014 10 16.0934 0 0
3:15 pm 15:15 Sunny 74 23.3 51 10.8 45 45 S 12 19 29.94 1014 10 16.0934 0 0
3:35 pm 15:35 Sunny 74 23.2 51 10.8 46 46 S 8 13 29.94 1014 10 16.0934 0 0
3:55 pm 15:55 Sunny 74 23.5 51 10.7 45 45 SSE 7 11 29.94 1014 10 16.0934 0 0
4:15 pm 16:15 Sunny 75 23.8 51 10.6 43 43 S 12 19 29.91 1013 10 16.0934 0 0
4:35 pm 16:35 Sunny 75 23.7 50 10 42 42 SSW 12 19 29.91 1013 10 16.0934 0 0
4:55 pm 16:55 Sunny 74 23.2 50 10.1 44 44 S 12 19 29.94 1014 10 16.0934 0 0
5:15 pm 17:15 Partly Cloudy 75 23.7 51 10.4 43 43 S 13 20 29.91 1013 10 16.0934 0 0
5:35 pm 17:35 Mostly Cloudy 73 22.9 50 10.2 45 45 S 12 19 29.91 1013 10 16.0934 0 0
5:55 pm 17:55 Mostly Cloudy 73 22.8 51 10.5 46 46 S 14 22 29.91 1013 10 16.0934 0 0
6:15 pm 18:15 Mostly Cloudy 73 22.5 50 10 45 45 SSE 14 22 29.91 1013 10 16.0934 0 0
6:35 pm 18:35 Cloudy 72 22.1 50 9.8 46 46 SSE 15 24 29.91 1013 10 16.0934 0 0
6:55 pm 18:55 Cloudy 68 19.9 51 10.7 56 56 S 24 39 29.97 1015 10 16.0934 0 0
7:15 pm 19:15 Cloudy 65 18.6 50 9.9 57 57 S 22 35 29.97 1015 10 16.0934 0 0
7:35 pm 19:35 Cloudy with Light Rain 61 16 52 11.2 73 73 S 25 41 30 1016 10 16.0934 0.04 1.016
7:55 pm 19:55 Cloudy 60 15.3 51 10.8 75 75 S 20 31 30 1016 10 16.0934 0.04 1.016
8:15 pm 20:15 Mostly Cloudy 59 15.2 51 10.4 73 73 SSW 12 19 29.97 1015 10 16.0934 0 0
8:35 pm 20:35 Partly Cloudy 59 14.8 51 10.6 76 76 SSE 7 11 29.97 1015 10 16.0934 0 0
8:55 pm 20:55 Clear 59 14.8 51 10.5 76 76 SE 8 13 30 1016 10 16.0934 0 0
9:15 pm 21:15 Clear 58 14.4 51 10.5 78 78 SSE 7 11 30 1016 10 16.0934 0 0
9:35 pm 21:35 Clear 57 14.1 50 10.2 78 78 ESE 6 9 29.97 1015 10 16.0934 0 0
9:55 pm 21:55 Clear 58 14.2 51 10.4 78 78 SE 3 6 29.97 1015 10 16.0934 0 0
10:15 pm 22:15 Partly Cloudy 58 14.3 51 10.3 77 77 SE 5 7 29.97 1015 10 16.0934 0 0
10:35 pm 22:35 Partly Cloudy 58 14.4 50 10 75 75 SSE 8 13 29.97 1015 10 16.0934 0 0
10:55 pm 22:55 Mostly Cloudy 60 15.4 51 10.6 73 73 S 15 24 29.97 1015 10 16.0934 0 0
11:15 pm 23:15 Cloudy 59 15 52 11 77 77 S 13 20 29.97 1015 10 16.0934 0 0
11:35 pm 23:35 Partly Cloudy 58 14.3 50 10.1 76 76 SSW 10 17 29.97 1015 10 16.0934 0 0
11:55 pm 23:55 Mostly Cloudy 58 14.2 49 9.7 75 75 SSE 10 17 29.97 1015 10 16.0934 0 0

Powered by AerisWeather